Preview of NWS' New Version of Forecast
This preview is not operational and should not be used for support decisions.
Latest weather observations around

Allen County Airport (KK88)

Using English Units (Switch to International System of Units)
Date/ Time (CST) Wind (mph) Vis. (mi) Weather Sky Cond. Temp (°F) Rel. Humidity Wind Chill (°F) Heat Index (°F) Pressure Precip. (in)
Air Dwpt 6 hour Altimeter (inHg) Sea level (inHg) 1 hr 3 hr 6 hr
Max Min
Jan 18 07:35 SE 13 1.25 Clear   37 37     100% 28   29.95        
Jan 18 07:15 SE 12 1.25 Clear   36 36     100% 29   29.96        
Jan 18 06:55 SE 8 1.25 Clear   36 36     100% 30   29.97        
Jan 18 06:35 SE 10 1.5 Clear   36 36     100% 28   29.97        
Jan 18 06:15 SE 10 2 Clear   36 36     100% 28   29.97        
Jan 18 05:55 SE 15 1.5 Clear   36 36     100% 26   29.98        
Jan 18 05:40 SE 9 2.5 Clear   36 36     100% 29   29.99        
Jan 18 05:15 SE 10 1.75 Clear   35 35     100% 28   30.01        
Jan 18 04:55 SE 8 2 Clear   35 35     100% 29   30.02        
Jan 18 04:35 SE 8 1.5 Cloudy OVC003 35 35     100% 29   30.02        
Jan 18 04:15 SE 9 2 Clear   35 35     100% 28   30.03        
Jan 18 03:55 ESE 9 2 Clear   35 35     100% 28   30.04        
Jan 18 03:35 ESE 8 3 Clear   36 36     100% 29   30.06        
Jan 18 03:15 ESE 8 2.5 Clear   36 36     100% 29   30.07        
Jan 18 02:55 SE 7 3 Clear   36 36     100% 30   30.09        
Jan 18 02:35 SE 6 4 Clear   36 36     100% 31   30.1        
Jan 18 02:15 ESE 8 5 Clear   36 36     100% 29   30.1        
Jan 18 01:55 SSE 5 4 Clear   36 36     100% 32   30.1        
Jan 18 01:35 SE 6 4 Clear   36 36     100% 31   30.1        
Jan 18 01:15 SSE 5 4 Clear   36 36     100% 32   30.11        
Jan 18 00:55 S 3 3 Clear   35 35     100% 32   30.12        
Jan 18 00:35 Calm 2.5 Clear   35 35     100%     30.12        
Jan 18 00:15 Calm 3 Clear   35 35     100%     30.13        
Jan 17 23:55 E 5 4 Clear   35 35     100% 31   30.13        
Jan 17 23:35 ENE 5 5 Clear   35 35     100% 31   30.14        
Jan 17 23:15 E 5 5 Clear   35 35     100% 31   30.13        
Jan 17 23:00 Calm 5 Clear   35 35     100%     30.14        
Jan 17 22:35 ENE 3 5 Clear   35 35     100% 32   30.15        
Jan 17 22:15 Calm 7 Clear   35 35     100%     30.16        
Jan 17 21:55 Calm 7 Clear   35 35     100%     30.16        
Jan 17 21:35 Calm 7 Clear   35 35     100%     30.16        
Jan 17 21:15 SSW 3 7 Clear   35 35     99% 32   30.17        
Jan 17 20:55 Calm 7 Clear   35 35     99%     30.15        
Jan 17 20:35 Calm 7 Clear   35 35     99%     30.16        
Jan 17 20:15 Calm 7 Clear   35 34     98%     30.16        
Jan 17 19:55 Calm 10 Clear   35 35     99%     30.15        
Jan 17 19:40 NNW 7 7 Clear   35 35     99% 29   30.14        
Jan 17 19:15 N 5 10 Clear   36 35     97% 32   30.14        
Jan 17 18:55 N 5 10 Clear   36 35     98% 32   30.13        
Jan 17 18:35 NNW 6 7 Clear   36 36     97% 32   30.13        
Jan 17 18:15 NW 3 10 Clear   36 36     98% 33   30.12        
Jan 17 17:55 NW 6 7 Clear   36 36     98% 32   30.12        
Jan 17 17:35 WNW 5 7 Cloudy OVC009 37 36     98% 33   30.13        
Jan 17 17:15 W 6 7 Clear   37 36     99% 32   30.14        
Jan 17 16:55 W 6 5 Clear   37 36     98% 32   30.14        
Jan 17 16:35 W 5 5 Clear   37 36     97% 34   30.15        
Jan 17 16:15 WNW 3 7 Clear   37 36     97% 35   30.13        
Jan 17 15:55 WNW 3 7 Clear   37 36     95% 35   30.13        
Jan 17 15:35 W 8 10 Cloudy OVC009 37 36     94% 31   30.13        
Jan 17 15:15 W 7 10 Clear   37 36     95% 32   30.13        
Jan 17 14:55 W 5 10 Clear   37 36     97% 33   30.12        
Jan 17 14:35 WNW 5 7 Cloudy OVC007 36 36     98% 33   30.11        
Jan 17 14:15 NNW 13 7 Clear   36 36     99% 28   30.11        
Jan 17 13:55 WNW 8 7 Clear   36 36     99% 30   30.12        
Jan 17 13:35 WNW 7 10 Clear   37 36     98% 31   30.13        
Jan 17 13:15 NW 8 10 Clear   37 36     99% 31   30.14        
Jan 17 12:55 NNW 6 7 Clear   36 36     100% 32   30.13        
Jan 17 12:35 W 5 5 Clear   36 36     100% 32   30.15        
Jan 17 12:15 WNW 9 5 Cloudy OVC007 36 36     100% 30   30.16        
Jan 17 11:55 NW 10 10 Clear   37 37     100% 29   30.16        
Jan 17 11:35 NW 7 7 Clear   36 36     100% 30   30.16        
Jan 17 11:15 NW 8 7 Clear   36 36     100% 29   30.16        
Jan 17 10:55 WNW 8 10 Clear   36 36     100% 29   30.17        
Jan 17 10:35 WNW 7 10 Clear   35 35     100% 29   30.17        
Jan 17 10:15 NW 7 7 Clear   34 34     100% 28   30.15        
Jan 17 09:55 NW 5 7 Clear   34 34     100% 30   30.14        
Jan 17 09:35 NW 6 5 Clear   34 34     100% 29   30.13        
Jan 17 09:15 NW 10 5 Clear   34 34     100% 26   30.13        
Jan 17 08:55 NNW 3 3 Clear   33 33     100% 30   30.11        
Jan 17 08:35 Calm 4 Clear   33 33     100%     30.11        
Jan 17 08:15 NNW 7 3 Clear   33 33     100% 27   30.11        
Jan 17 07:55 Calm 3 Clear   33 33     100%     30.1        
Jan 17 07:35 NNW 6 3 Clear   33 33     100% 27   30.1        
Jan 17 07:15 NNW 8 1.75 Clear   33 33     100% 26   30.1        
Jan 17 06:55 NNW 10 1.5 Clear   33 33     100% 25   30.09        
Jan 17 06:35 N 9 1.25 Cloudy OVC001 33 33     100% 25   30.07        
Jan 17 06:15 N 10 1.75 Clear   33 33     100% 25   30.07        
Jan 17 06:00 NNW 8 2 Clear   33 33     100% 26   30.06        
Jan 17 05:35 NNW 9 1 Clear   33 33     100% 25   30.06        
Jan 17 05:15 NNW 10 1 Clear   33 33     100% 25   30.05        
Jan 17 04:55 N 9 1 Clear   33 33     100% 25   30.05        
Jan 17 04:35 NNW 8 0.75 Clear   33 33     100% 27   30.04        
Jan 17 04:15 N 7 0.75 Clear   34 34     100% 28   30.04        
Jan 17 03:55 N 7 0.5 Clear   34 34     100% 28   30.04        
Jan 17 03:35 N 6 0.5 Clear   34 34     100% 29   30.04        
Jan 17 03:15 N 6 0.5 Clear   34 34     100% 29   30.04        
Jan 17 02:55 NNW 6 0.25 Clear   34 34     100% 29   30.04        
Jan 17 02:35 NNE 5 0.25 Clear   34 34     100% 30   30.03        
Jan 17 02:15 N 5 0.25 Clear   34 34     100% 30   30.03        
Jan 17 01:55 NNE 6 0.5 Clear   34 34     100% 29   30.03        
Jan 17 01:35 N 6 0.5 Clear   34 34     100% 29   30.04        
Jan 17 01:15 N 8 0.5 Clear   34 34     100% 27   30.04        
Jan 17 00:55 N 6 0.75 Clear   34 34     100% 29   30.04        
Jan 17 00:35 N 6 1.25 Clear   35 35     100% 30   30.04        
Jan 17 00:15 N 5 1.75 Clear   35 35     100% 31   30.05        
Jan 16 23:55 NNE 5 2.5 Clear   35 35     100% 31   30.05        
Jan 16 23:35 ENE 3 2.5 Clear   35 35     100% 32   30.05        
Jan 16 23:15 NE 3 2.5 Clear   35 35     100% 32   30.06        
Jan 16 22:55 NE 3 2.5 Clear   35 35     100% 32   30.06        
Jan 16 22:35 NE 3 2.5 Cloudy OVC003 35 35     100% 32   30.06        
Jan 16 22:15 Calm 4 Clear   36 36     100%     30.07        
Jan 16 21:55 ENE 3 4 Clear   35 35     100% 32   30.06        
Jan 16 21:35 ENE 5 5 Clear   35 35     100% 31   30.06        
Jan 16 21:15 ENE 7 5 Clear   35 35     100% 29   30.05        
Jan 16 20:55 ENE 6 4 Clear   35 35     100% 30   30.05        
Jan 16 20:35 ENE 6 4 Clear   35 35     100% 30   30.06        
Jan 16 20:15 NE 8 3 Clear   35 35     100% 29   30.07        
Jan 16 19:55 NE 8 2.5 Clear   35 35     100% 29   30.07        
Jan 16 19:35 NE 5 1.75 Clear   35 35     100% 31   30.08        
Jan 16 19:15 NE 3 1.5 Clear   36 36     100% 33   30.07        
Jan 16 18:55 NE 5 1.25 Clear   36 36     100% 32   30.07        
Jan 16 18:35 Calm 1.25 Clear   36 36     100%     30.06        
Jan 16 18:15 NE 3 1.5 Clear   36 36     100% 33   30.06        
Jan 16 17:55 ENE 6 1.75 Clear   36 36     100% 31   30.05        
Jan 16 17:35 NE 6 1.5 Clear   36 36     100% 31   30.06        
Jan 16 17:15 NE 6 1.5 Clear   36 36     100% 31   30.06        
Jan 16 16:55 NE 5 1.75 Clear   36 36     100% 32   30.07        
Jan 16 16:35 NE 5 2 Clear   36 36     100% 32   30.06        
Jan 16 16:15 NE 8 2 Cloudy OVC003 36 36     100% 30   30.07        
Jan 16 15:55 NE 7 2 Clear   36 36     100% 30   30.08        
Jan 16 15:35 NE 6 2 Clear   36 36     100% 31   30.08        
Jan 16 15:15 NE 7 2.5 Clear   36 36     100% 30   30.08        
Jan 16 14:55 NE 6 2.5 Clear   36 36     100% 31   30.09        
Jan 16 14:35 NE 5 2 Cloudy OVC003 36 36     100% 32   30.09        
Jan 16 14:15 NE 5 2.5 Cloudy BKN003 OVC024 36 36     100% 32   30.1        
Jan 16 13:55 NE 7 2.5 Clear   36 36     100% 30   30.1        
Jan 16 13:35 NE 5 2 Cloudy BKN003 OVC024 36 36     100% 32   30.11        
Jan 16 13:15 NE 5 2 Clear   35 35     100% 31   30.12        
Jan 16 12:55 NE 3 2 Clear   35 35     100% 32   30.13        
Jan 16 12:35 NE 6 2 Clear   35 35     100% 30   30.14        
Jan 16 12:15 ENE 3 2.5 Clear   34 34     100% 31   30.16        
Jan 16 11:55 E 5 3 Clear   35 35     100% 30   30.17        
Jan 16 11:35 ENE 6 2.5 Clear   34 34     100% 29   30.18        
Jan 16 11:15 E 6 3 Clear   34 34     100% 29   30.19        
Jan 16 10:55 E 5 3 Clear   34 34     100% 30   30.2        
Jan 16 10:35 E 6 3 Clear   34 34     100% 28   30.2        
Jan 16 10:20 E 5 3 Clear   33 33     100% 29   30.19        
Jan 16 09:55 E 7 3 Clear   33 33     100% 27   30.18        
Jan 16 09:35 ENE 8 2.5 Clear   33 33     100% 25   30.18        
Jan 16 09:15 ENE 6 2.5 Cloudy OVC005 32 32     100% 27   30.18        
Jan 16 08:55 ENE 7 2.5 Clear   32 32     100% 26   30.19        
Jan 16 08:35 NE 5 2.5 Clear   32 32     100% 27   30.2        
Jan 16 08:15 NE 5 2 Clear   32 32     100% 27   30.2        
Jan 16 07:55 NE 5 1.75 Clear   32 32     100% 27   30.2        
Jan 16 07:35 NE 3 2.5 Clear   32 32     100% 29   30.2        
Jan 16 07:15 NNE 5 3 Clear   32 32     100% 27   30.2        
Jan 16 06:55 NNE 6 2.5 Clear   32 32     100% 26   30.19        
Jan 16 06:40 N 3 2.5 Clear   32 32     100% 29   30.2        
Jan 16 06:15 NNE 3 2 Clear   32 32     100% 29   30.18        
Jan 16 05:55 N 5 2 Clear   32 32     100% 27   30.18        
Jan 16 05:35 N 3 2 Clear   32 32     100% 29   30.17        
Jan 16 05:15 N 3 1.75 Clear   32 32     100% 29   30.17        
Jan 16 04:55 Calm 2 Clear   32 32     100%     30.17        
Jan 16 04:35 Calm 1 Clear   33 33     100%     30.16        
Jan 16 04:15 Calm 0.75 Clear   33 33     100%     30.17        
Jan 16 03:55 Calm 0.5 Clear   32 32     100%     30.17        
Jan 16 03:35 S 3 0.5 Clear   32 32     100% 29   30.18        
Jan 16 03:15 Calm 2 Clear   33 33     100%     30.17        
Jan 16 02:55 S 3 1.25 Clear   32 32     100% 29   30.18        
Jan 16 02:35 Calm 1.75 Clear   32 32     100%     30.17        
Jan 16 02:15 Calm 1.5 Clear   31 31     100%     30.17        
Jan 16 01:55 SSW 6 2 Clear   31 31     100% 26   30.17        
Jan 16 01:35 S 7 2.5 Clear   32 32     100% 25   30.17        
Jan 16 01:15 SSW 7 3 Clear   32 32     100% 26   30.17        
Jan 16 00:55 S 6 4 Clear   33 33     100% 27   30.16        
Jan 16 00:35 SSW 7 4 Clear   33 33     100% 27   30.17        
Jan 16 00:15 SSW 8 4 Clear   32 32     100% 25   30.18        
Jan 15 23:55 SSW 8 4 Clear   32 32     100% 25   30.18        
Jan 15 23:35 SSW 6 4 Clear CLR 32 32     100% 27   30.18        
Jan 15 23:20 SSW 6 4 Clear   33 33     100% 28   30.18        
Jan 15 22:55 SSW 7 4 Clear   33 33     100% 27   30.18        
Jan 15 22:35 SSW 8 4 Clear   32 32     100% 25   30.17        
Jan 15 22:15 SSW 7 4 Clear   32 32     100% 26   30.17        
Jan 15 21:55 SSW 6 4 Clear   33 33     100% 27   30.17        
Jan 15 21:35 SSW 5 2.5 Clear CLR 32 32     100% 28   30.17        
Jan 15 21:20 SSW 5 0.75 Clear   32 32     100% 27   30.16        
Jan 15 20:55 S 3 0.25 Clear   30 30     100% 26   30.16        
Jan 15 20:35 S 5 0.25 Clear VV002 32 32     100% 27   30.16        
Jan 15 20:15 Calm 0.75 Clear   32 32     100%     30.16        
Jan 15 19:55 Calm 1.75 Clear   30 30     100%     30.16        
Jan 15 19:35 Calm 3 Clear   33 33     100%     30.16        
Jan 15 19:15 Calm 3 Clear   34 34     100%     30.16        
Jan 15 18:55 Calm 4 Clear   33 33     100%     30.15        
Jan 15 18:35 Calm 4 Clear CLR 33 33     100%     30.15        
Jan 15 18:15 Calm 5 Clear   35 35     100%     30.14        
Jan 15 17:55 SE 3 5 Clear   35 35     100% 32   30.14        
Jan 15 17:35 Calm 4 Clear   36 35     96%     30.15        
Jan 15 17:15 Calm 5 Clear   36 36     97%     30.15        
Jan 15 16:55 Calm 5 Clear   37 36     95%     30.15        
Jan 15 16:35 SSE 3 4 Clear   37 36     94% 34   30.15        
Jan 15 16:15 S 3 4 Clear   36 36     97% 34   30.16        
Jan 15 15:55 S 3 4 Clear   36 35     98% 33   30.17        
Jan 15 15:35 SSW 5 4 Clear   35 35     99% 31   30.17        
Jan 15 15:15 SSW 7 3 Clear   35 35     100% 29   30.17        
Jan 15 15:00 SSW 6 3 Clear   34 34     100% 29   30.18        
Jan 15 14:35 SSW 9 3 Clear   34 34     100% 26   30.18        
Jan 15 14:20 SSW 8 2.5 Cloudy OVC004 34 33     99% 27   30.18        
Jan 15 13:55 SW 6 2.5 Clear   33 33     99% 28   30.18        
Jan 15 13:35 SSW 8 2.5 Clear   33 33     100% 26   30.19        
Jan 15 13:15 SSW 8 2.5 Clear   33 33     100% 26   30.2        
Jan 15 12:55 S 9 2.5 Clear   33 33     100% 25   30.21        
Jan 15 12:35 SSW 10 2.5 Clear   32 32     100% 24   30.22        
Jan 15 12:15 S 9 2 Clear   32 32     100% 24   30.24        
Jan 15 11:55 SSW 10 2 Clear   32 32     100% 24   30.25        
Jan 15 11:35 S 12 2 Cloudy OVC004 32 32     100% 23   30.27        
Jan 15 11:15 S 7 2 Cloudy OVC004 32 32     100% 26   30.28        
Jan 15 10:55 S 9 2 Clear   32 32     100% 24   30.28        
Jan 15 10:35 NNW 8 1.5 Clear   32 32     100% 24   30.29        
Jan 15 10:15 SSW 9 1.25 Clear   31 31     100% 23   30.28        
Jan 15 09:55 S 12 1 Clear   31 31     100% 22   30.28        
Jan 15 09:35 S 10 1.25 Cloudy OVC002 31 31     100% 22   30.28        
Jan 15 09:15 S 10 1.25 Clear   31 31     100% 22   30.27        
Jan 15 08:55 S 8 1.25 Clear   31 31     100% 23   30.27        
Jan 15 08:35 S 10 1.25 Clear   31 31     100% 22   30.27        
Jan 15 08:15 S 10 1.5 Clear   31 31     100% 22   30.27        
Jan 15 07:55 S 9 1.5 Clear   30 30     100% 22   30.26        
May 15 11:15 W 8 10 Clear   72 63     72%   73 30.01        
May 15 05:35 Calm 10 Clear   61 60     97%     29.91        
Notice The following observation data may not be complete
May 14 16:15   3 Clear     58      %     29.83        
May 14 13:35 SSW 7 10 Clear   84 68     58%   88 29.92        
May 14 06:15 SSE 8 10 Clear   70 64     81%     29.92        
May 14 01:55 Calm 10 Clear   69 63     80%     29.96        
May 13 23:15 Calm 10 Clear   72 63     73%   72 29.98        
May 13 12:15 S 18 10 Clear   84 67     56%   87 29.99        
May 13 09:55 S 15 10 Clear   77 67     72%   78 30        
May 13 01:15 S 12 10 Clear   72 64     76%   72 29.97        
May 12 18:35 S 12 10 Clear   80 66     63%   82 29.9        
May 12 13:15 S 20 10 Clear   81 66     60%   83 29.91        
May 12 05:15 SSE 12 10 Clear   70 61     72%   70 29.84        
May 12 03:15 SSE 9 10 Clear   70 61     74%   70 29.86        
May 11 08:35   10 Clear   71 60     69%   70 29.76